This is the latest recevied weather packets stored in our database for station/object KB8SSH. If no packets are shown the sender has not sent any weather packets the latest 10 day(s).
| Time | Temp. | Humidity | Pressure | Rain* | Wind** | Luminosity | Snow |
|---|---|---|---|---|---|---|---|
| 1777579816 | 13.33° C | 55% | 1048.4 hPa | 0 mm | - | 173 W/m² | - |
| 1777579514 | 12.78° C | 55% | 1048.4 hPa | 0 mm | - | 239 W/m² | - |
| 1777579209 | 12.78° C | 55% | 1048.8 hPa | 0 mm | - | 186 W/m² | - |
| 1777578904 | 12.78° C | 59% | 1048.4 hPa | 0 mm | - | 163 W/m² | - |
| 1777578601 | 12.78° C | 56% | 1048.4 hPa | 0 mm | - | 152 W/m² | - |
| 1777578295 | 13.33° C | 55% | 1048.4 hPa | 0 mm | - | 144 W/m² | - |
| 1777577991 | 12.22° C | 61% | 1048.4 hPa | 0 mm | - | 181 W/m² | - |
| 1777577686 | 12.22° C | 56% | 1048.8 hPa | 0 mm | - | 197 W/m² | - |
| 1777577384 | 12.78° C | 56% | 1048.4 hPa | 0 mm | - | 187 W/m² | - |
| 1777577079 | 12.22° C | 58% | 1048.8 hPa | 0 mm | - | 707 W/m² | - |
| 1777576776 | 12.78° C | 57% | 1048.8 hPa | 0 mm | - | 142 W/m² | - |
| 1777576475 | 12.78° C | 58% | 1048.8 hPa | 0 mm | - | 188 W/m² | - |
| 1777576172 | 12.22° C | 60% | 1048.8 hPa | 0 mm | - | 193 W/m² | - |
| 1777575867 | 11.67° C | 61% | 1048.8 hPa | 0 mm | - | 505 W/m² | - |
| 1777575564 | 11.67° C | 62% | 1048.8 hPa | 0 mm | - | 162 W/m² | - |
| 1777575259 | 11.67° C | 62% | 1049.1 hPa | 0 mm | - | 120 W/m² | - |
| 1777574956 | 12.22° C | 60% | 1048.8 hPa | 0 mm | - | 138 W/m² | - |
| 1777574652 | 13.89° C | 58% | 1048.8 hPa | 0 mm | - | 217 W/m² | - |
| 1777574350 | 12.78° C | 65% | 1049.1 hPa | 0 mm | - | 297 W/m² | - |
| 1777574050 | 13.33° C | 62% | 1048.8 hPa | 0 mm | - | 763 W/m² | - |
| 1777573745 | 12.22° C | 64% | 1049.1 hPa | 0 mm | - | 207 W/m² | - |
| 1777573441 | 12.78° C | 66% | 1049.1 hPa | 0 mm | - | 198 W/m² | - |
| 1777573137 | 11.67° C | 63% | 1049.1 hPa | 0 mm | - | 573 W/m² | - |
| 1777572834 | 12.78° C | 64% | 1048.8 hPa | 0 mm | - | 147 W/m² | - |
| 1777572530 | 11.67° C | 66% | 1049.1 hPa | 0 mm | - | 712 W/m² | - |
* Rain latest hour (hover to see other rain measurements)
** Current wind speed in m/s (hover to see current wind gust speed)